Location: Sewell
(39.7660°N, 75.1450°W)
Time: 05:03:49
(UTC-05:00)

ISS - Visible Passes

Search period start: 18 January 2017 00:00
Search period end: 28 January 2017 00:00
Orbit: 400 x 410 km, 51.6° (Epoch: 18 January)

Date Brightness Start Highest point End Pass type
(mag) Time Alt. Az. Time Alt. Az. Time Alt. Az.
18 Jan -2.1 05:16:07 40° ENE 05:16:07 40° ENE 05:18:36 10° ESE visible
19 Jan -2.5 05:58:58 30° WSW 05:59:39 33° SW 06:02:37 10° SSE visible
20 Jan -1.3 05:09:13 25° SE 05:09:13 25° SE 05:10:44 10° SE visible
21 Jan -1.0 05:52:14 13° SSW 05:52:14 13° SSW 05:53:08 10° SSW visible
25 Jan -0.6 18:59:41 10° S 18:59:46 10° S 18:59:46 10° S visible
26 Jan -0.1 19:42:34 10° SW 19:42:52 12° SW 19:42:52 12° SW visible
27 Jan -2.6 18:50:27 10° SSW 18:53:11 41° SSE 18:53:11 41° SSE visible
